AAL1441 KCLT-KTRI

Flight info

Callsign AAL1441
Flight time 0h 24m
Altitude 20000
Route JOJJO5 JOJJO BENBY
Aircraft A319/M-VGDW/C

Departure

Time 2026-05-06 15:24
Airport Charlotte Douglas International Airport (KCLT)

Arrival

Time 2026-05-06 15:49
Airport Tri-Cities Regional TN/VA Airport (KTRI)
Time Latitude Longitude Altitude Speed Heading
2026-05-06 15:06 35.21914 -80.94569 733 ft 0 kts 102°
2026-05-06 15:18 35.21917 -80.94586 732 ft 4 kts 101°
2026-05-06 15:18 35.21923 -80.94621 730 ft 4 kts 101°
2026-05-06 15:19 35.21928 -80.94656 731 ft 4 kts 84°
2026-05-06 15:19 35.21915 -80.94686 732 ft 4 kts 20°
2026-05-06 15:19 35.21886 -80.94687 732 ft 4 kts 351°
2026-05-06 15:19 35.21876 -80.94685 732 ft 0 kts 351°
2026-05-06 15:20 35.21882 -80.94686 732 ft 4 kts 350°
2026-05-06 15:21 35.21892 -80.94731 732 ft 10 kts 260°
2026-05-06 15:21 35.21877 -80.94856 733 ft 19 kts 264°
2026-05-06 15:21 35.21868 -80.95028 734 ft 17 kts 279°
2026-05-06 15:21 35.21961 -80.95051 734 ft 15 kts 358°
2026-05-06 15:22 35.22078 -80.95061 734 ft 19 kts 355°
2026-05-06 15:22 35.22228 -80.95076 734 ft 24 kts 355°
2026-05-06 15:22 35.22417 -80.95091 734 ft 30 kts 356°
2026-05-06 15:22 35.22624 -80.95108 734 ft 27 kts 356°
2026-05-06 15:23 35.22731 -80.95149 734 ft 10 kts 274°
2026-05-06 15:23 35.22730 -80.95231 737 ft 13 kts 268°
2026-05-06 15:23 35.22687 -80.95313 741 ft 16 kts 182°
2026-05-06 15:23 35.22375 -80.95288 739 ft 76 kts 176°
2026-05-06 15:24 35.21651 -80.95227 740 ft 132 kts 176°
2026-05-06 15:24 35.20600 -80.95131 943 ft 162 kts 177°
2026-05-06 15:24 35.19425 -80.95019 1460 ft 177 kts 179°
2026-05-06 15:24 35.18158 -80.94903 2057 ft 187 kts 183°
2026-05-06 15:25 35.16924 -80.95272 2713 ft 182 kts 217°
2026-05-06 15:25 35.16137 -80.96454 3289 ft 188 kts 249°
2026-05-06 15:25 35.16108 -80.98140 3639 ft 220 kts 282°
2026-05-06 15:25 35.16978 -80.99833 4187 ft 253 kts 309°
2026-05-06 15:26 35.18338 -81.01236 5078 ft 261 kts 314°
2026-05-06 15:26 35.19747 -81.02651 6074 ft 263 kts 314°
2026-05-06 15:26 35.21162 -81.04072 7077 ft 263 kts 314°
2026-05-06 15:26 35.22582 -81.05501 8038 ft 265 kts 313°
2026-05-06 15:27 35.24008 -81.06942 9009 ft 267 kts 312°
2026-05-06 15:27 35.25447 -81.08402 9952 ft 270 kts 311°
2026-05-06 15:27 35.26928 -81.09909 10424 ft 288 kts 312°
2026-05-06 15:27 35.28524 -81.11551 10683 ft 311 kts 312°
2026-05-06 15:28 35.30211 -81.13279 11223 ft 321 kts 313°
2026-05-06 15:28 35.31948 -81.15038 11941 ft 326 kts 313°
2026-05-06 15:28 35.33713 -81.16815 12679 ft 330 kts 313°
2026-05-06 15:28 35.35494 -81.18612 13417 ft 333 kts 313°
2026-05-06 15:29 35.37267 -81.20406 14128 ft 336 kts 313°
2026-05-06 15:29 35.39075 -81.22245 14779 ft 339 kts 314°
2026-05-06 15:29 35.40899 -81.24102 15442 ft 341 kts 314°
2026-05-06 15:29 35.42732 -81.25965 16097 ft 344 kts 314°
2026-05-06 15:30 35.44479 -81.27955 16767 ft 342 kts 307°
2026-05-06 15:30 35.45909 -81.30278 17376 ft 343 kts 301°
2026-05-06 15:30 35.47293 -81.32680 17979 ft 347 kts 301°
2026-05-06 15:30 35.48674 -81.35093 18555 ft 350 kts 301°
2026-05-06 15:31 35.50080 -81.37549 19099 ft 353 kts 301°
2026-05-06 15:31 35.51499 -81.40017 19647 ft 356 kts 301°
2026-05-06 15:31 35.52930 -81.42510 19910 ft 357 kts 301°
2026-05-06 15:32 35.55825 -81.47771 19997 ft 386 kts 296°
2026-05-06 15:32 35.57100 -81.50729 19997 ft 398 kts 295°
2026-05-06 15:32 35.58398 -81.53755 19996 ft 401 kts 295°
2026-05-06 15:32 35.59688 -81.56755 20013 ft 402 kts 295°
2026-05-06 15:33 35.60997 -81.59795 20020 ft 402 kts 295°
2026-05-06 15:33 35.62305 -81.62831 20023 ft 402 kts 295°
2026-05-06 15:33 35.63615 -81.65870 20030 ft 402 kts 295°
2026-05-06 15:33 35.64922 -81.68907 20031 ft 402 kts 295°
2026-05-06 15:34 35.66229 -81.71950 20032 ft 402 kts 295°
2026-05-06 15:34 35.67536 -81.74997 20029 ft 403 kts 295°
2026-05-06 15:34 35.68842 -81.78040 20024 ft 397 kts 295°
2026-05-06 15:34 35.70118 -81.81014 19934 ft 389 kts 295°
2026-05-06 15:35 35.71364 -81.83931 19304 ft 383 kts 295°
2026-05-06 15:35 35.72596 -81.86821 18638 ft 379 kts 295°
2026-05-06 15:35 35.73995 -81.89566 17936 ft 379 kts 303°
2026-05-06 15:35 35.75725 -81.91951 17236 ft 380 kts 312°
2026-05-06 15:36 35.77793 -81.93985 16572 ft 381 kts 321°
2026-05-06 15:36 35.80098 -81.95610 15897 ft 381 kts 326°
2026-05-06 15:36 35.82424 -81.97135 15226 ft 377 kts 326°
2026-05-06 15:36 35.84729 -81.98652 14557 ft 374 kts 326°
2026-05-06 15:37 35.87011 -82.00164 13865 ft 370 kts 325°
2026-05-06 15:37 35.89266 -82.01664 13152 ft 367 kts 325°
2026-05-06 15:37 35.91506 -82.03154 12434 ft 363 kts 325°
2026-05-06 15:37 35.93721 -82.04630 11949 ft 360 kts 325°
2026-05-06 15:38 35.95912 -82.06088 11240 ft 357 kts 324°
2026-05-06 15:38 35.98092 -82.07539 10562 ft 353 kts 324°
2026-05-06 15:38 36.00220 -82.08958 10123 ft 348 kts 325°
2026-05-06 15:38 36.02301 -82.10340 9969 ft 331 kts 325°
2026-05-06 15:39 36.04268 -82.11645 9953 ft 311 kts 324°
2026-05-06 15:39 36.06118 -82.12874 9957 ft 293 kts 324°
2026-05-06 15:39 36.07859 -82.14033 9955 ft 275 kts 323°
2026-05-06 15:39 36.09505 -82.15135 9959 ft 267 kts 323°
2026-05-06 15:40 36.11124 -82.16230 9958 ft 265 kts 323°
2026-05-06 15:40 36.12720 -82.17349 9806 ft 259 kts 317°
2026-05-06 15:40 36.14131 -82.18681 9487 ft 253 kts 313°
2026-05-06 15:40 36.15498 -82.20049 9130 ft 252 kts 312°
2026-05-06 15:41 36.16771 -82.21495 8770 ft 246 kts 305°
2026-05-06 15:41 36.17855 -82.23126 8441 ft 244 kts 302°
2026-05-06 15:41 36.18918 -82.24774 8116 ft 246 kts 302°
2026-05-06 15:41 36.20003 -82.26417 7768 ft 247 kts 302°
2026-05-06 15:42 36.21100 -82.28059 7370 ft 248 kts 303°
2026-05-06 15:42 36.22201 -82.29705 7090 ft 249 kts 303°
2026-05-06 15:42 36.23305 -82.31355 6801 ft 249 kts 303°
2026-05-06 15:42 36.24408 -82.33001 6563 ft 247 kts 303°
2026-05-06 15:43 36.25485 -82.34608 6324 ft 244 kts 303°
2026-05-06 15:43 36.26561 -82.36227 6116 ft 241 kts 302°
2026-05-06 15:43 36.27452 -82.37937 5891 ft 233 kts 294°
2026-05-06 15:43 36.28224 -82.39698 5437 ft 233 kts 293°
2026-05-06 15:44 36.28988 -82.41504 4866 ft 239 kts 292°
2026-05-06 15:44 36.29816 -82.43301 4376 ft 243 kts 300°
2026-05-06 15:44 36.30833 -82.44969 4075 ft 237 kts 303°
2026-05-06 15:44 36.31819 -82.46520 3948 ft 221 kts 303°
2026-05-06 15:45 36.32753 -82.47959 3816 ft 207 kts 307°
2026-05-06 15:45 36.33877 -82.48985 3687 ft 198 kts 327°
2026-05-06 15:45 36.35168 -82.49537 3624 ft 198 kts 346°
2026-05-06 15:45 36.36536 -82.49647 3592 ft 197 kts 352°
2026-05-06 15:46 36.37905 -82.49698 3596 ft 196 kts 355°
2026-05-06 15:46 36.39279 -82.49503 3447 ft 205 kts 11°
2026-05-06 15:46 36.40546 -82.48700 3131 ft 203 kts 37°
2026-05-06 15:46 36.41553 -82.47571 2862 ft 194 kts 43°
2026-05-06 15:47 36.42540 -82.46449 2716 ft 189 kts 43°
2026-05-06 15:47 36.43433 -82.45428 2615 ft 160 kts 43°
2026-05-06 15:47 36.44222 -82.44534 2330 ft 151 kts 43°
2026-05-06 15:47 36.44983 -82.43675 2018 ft 145 kts 43°
2026-05-06 15:48 36.45719 -82.42837 1774 ft 144 kts 41°
2026-05-06 15:48 36.46460 -82.41996 1579 ft 144 kts 42°
2026-05-06 15:48 36.47160 -82.41201 1518 ft 125 kts 42°
2026-05-06 15:48 36.47650 -82.40644 1518 ft 60 kts 42°
2026-05-06 15:49 36.47878 -82.40468 1515 ft 25 kts 329°
2026-05-06 15:49 36.47993 -82.40577 1517 ft 14 kts 354°
2026-05-06 15:49 36.48057 -82.40610 1517 ft 1 kts 327°
2026-05-06 15:49 36.48067 -82.40619 1517 ft 3 kts 327°
2026-05-06 15:50 36.48069 -82.40620 1517 ft 0 kts 327°